Location: Taipo
(41.0000°S, 175.9500°E)
Time: 03:19:37
(UTC+00:00)

BREEZE-M DEB (TANK) - Visible Passes

Search period start: 25 July 2024 00:00
Search period end: 04 August 2024 00:00
Orbit: 388 x 20079 km, 49.3° (Epoch: 24 July)

Date Brightness Start Highest point End Pass type
(mag) Time Alt. Az. Time Alt. Az. Time Alt. Az.
25 Jul 9.4 18:18:57 10° NE 19:43:48 24° ENE 20:17:10 10° ESE visible
26 Jul 6.0 08:33:41 10° W 08:36:33 14° WNW 08:36:47 14° WNW visible
26 Jul 9.5 18:09:15 10° NE 19:22:54 21° ENE 19:55:00 10° ESE visible
27 Jul 5.5 08:12:18 10° WSW 08:16:50 19° WNW 08:17:32 18° NW visible
27 Jul 9.7 18:00:47 10° ENE 19:02:10 18° E 19:32:11 10° ESE visible
28 Jul 5.1 07:51:04 10° WSW 07:57:06 25° WNW 07:58:19 21° NNW visible
28 Jul 9.9 17:53:56 10° ENE 18:41:37 16° E 19:08:15 10° ESE visible
29 Jul 4.8 07:29:52 10° WSW 07:37:20 33° WNW 07:39:06 22° N visible
29 Jul 10.1 17:49:50 10° ENE 18:21:15 13° E 18:42:05 10° E visible
30 Jul 4.8 07:08:37 10° WSW 07:17:30 42° NW 07:19:53 18° NNE visible
30 Jul 10.4 17:59:06 10° E 18:01:03 10° E 18:02:57 10° E visible
31 Jul 4.5 06:47:16 10° WSW 06:57:37 53° NW 07:00:41 13° NNE visible
01 Aug 4.3 06:25:45 10° WSW 06:37:41 64° NW 06:41:11 10° NE visible
02 Aug 4.3 06:04:04 10° WSW 06:17:41 76° NW 06:21:22 10° NE visible
03 Aug 4.3 05:42:08 10° WSW 05:57:35 87° NW 06:01:30 10° NE visible
